Vertical_Velocity
-1 -1 -0 -0 -1 -1 -0 -0 2 -1 -2 2 -1 -2 0 -2 0 3 0 -1 -2 -2 -3 -1 -2 -1 -3 -2 -3 -3 -1 -3 -0 0 3 3 2 1 -6 -5 -3 -2 -4 -2
-0 -1 -1 -1 0 -0 -1 -0 -1 1 -2 -1 -4 -1 0 -1 -2 0 -1 -1 -1 -2 -4 -2 1 -2 -2 -1 -1 -2 -1 -2 -1 2 -0 3 4 1 -1 -5 -9 -2 -3 -2
-1 -1 -1 -1 -1 -0 -1 -0 0 -1 -0 -2 -3 -2 -3 -4 -0 1 1 -1 1 -3 -4 -1 -1 -1 -1 -1 -0 3 2 2 -2 -3 -1 2 2 8 8 1 -1 -6 -2 -3
0 0 -0 0 1 1 1 0 -0 1 0 -1 -2 -6 -3 -2 0 1 -1 0 2 -1 -2 -1 1 -1 2 3 0 -1 -1 -2 1 -0 -1 -1 2 -1 2 -0 0 -4 -8 -3
-1 -2 -3 -1 -1 -2 -1 1 2 1 -0 -0 -1 -4 -0 -1 2 -3 2 -3 -1 -1 -0 1 -3 1 -1 1 2 0 2 -3 -3 -2 -0 -2 0 -5 -4 -1 1 -7 -5 -9
-2 -2 -2 -4 -3 -2 -1 -2 -2 -1 1 3 1 -1 10 2 0 -0 -4 -3 0 -0 0 0 0 -1 2 -1 -2 -3 -3 -5 0 0 -1 -3 -6 -4 -4 -3 -2 -5 -5 -6
2 2 -2 -2 0 -2 -4 -3 -4 -2 2 3 3 2 -7 -2 -1 0 -1 0 -0 1 3 -0 -3 0 -0 1 0 1 1 0 -1 -2 -1 -2 -8 -9 -4 -3 -6 -1 -1 -3
2 7 1 -1 -2 -0 -1 -1 -4 -9 -3 3 -1 -4 -0 -1 0 0 -1 -3 -3 -2 2 -1 0 -1 1 0 -0 -1 -2 0 -3 -3 -3 -5 -7 -8 -4 -4 -3 -4 -3 -1
-10 10 0 -1 -0 -2 2 -1 -1 -5 -0 -2 1 0 3 -1 -1 -2 1 -5 -1 -1 1 1 -3 -4 -1 -3 -3 -5 1 -1 -4 -2 -2 -1 -5 -9 -1 -1 -4 -5 -2 -1
-4 -2 4 -1 -2 -1 -2 -2 -4 -1 -10 -6 -0 -1 -2 3 -1 -2 -3 -3 -1 -1 -0 -2 -4 -4 -1 -4 -2 -2 -5 -5 -3 -1 -6 -4 -5 -3 -1 2 -1 -4 -1 -2
-2 4 10 -4 -3 -1 -1 -3 -2 -3 -2 -11 -14 10 -6 -3 -9 -3 -5 -5 -3 2 -3 -0 0 -1 2 4 -0 -3 -3 -2 1 -1 -2 -2 -4 -4 -2 -2 -2 -1 -3 1
0 -4 4 -0 -4 -0 2 -3 -2 -9 -3 1 1 13 8 -1 -1 -3 -2 -0 -3 -5 -3 -1 -1 -1 0 1 1 -0 2 -2 0 1 -1 -0 -3 -3 -1 -4 -3 0 -4 -1
-2 1 -7 11 -2 -1 5 7 -3 -2 1 14 -14 3 11 -9 -2 -2 -2 -3 -5 -2 -2 -1 -1 -1 -2 0 0 5 -1 3 2 1 -1 1 -4 -1 -2 -5 -5 1 -2 -1
-4 6 -2 0 -2 -7 0 7 -1 -5 -6 -10 20 0 13 -10 -9 -2 -0 -4 -6 1 -0 -2 0 2 -1 -0 1 4 2 -4 3 0 -3 -2 -2 -2 -0 -3 -6 -0 -3 -1
-7 -1 -9 7 -4 -11 -2 6 -2 1 9 -26 30 -12 6 3 12 6 -0 0 -0 -1 1 1 2 3 1 2 3 3 1 -1 -1 -0 -4 -2 -1 -2 0 -3 -5 -1 -3 -1
6 -7 -4 9 6 -5 -6 10 -3 -3 12 -2 -12 11 -26 0 -4 7 0 -3 0 -0 0 3 1 -0 -2 -2 0 3 3 0 -1 -1 -4 -3 -2 -1 -0 -2 -4 -2 -2 -0
-1 -4 -9 0 -5 -5 2 1 2 0 5 -3 -0 0 -5 4 -2 7 4 -2 2 -2 -1 1 -3 -1 1 -1 -3 5 3 -0 1 -1 -3 -5 -3 -2 -0 0 -4 -3 -3 2
-9 -0 -2 -16 2 -11 -9 -4 -5 -7 13 -2 8 -3 -1 -2 3 9 -6 -2 1 -0 1 2 -0 5 1 -1 1 4 -2 -1 -1 -0 1 -4 -5 -5 -2 -0 -1 -2 -3 -2
3 -2 -14 -13 1 -12 45 3 -0 -11 13 7 -6 4 1 -4 -2 28 -8 1 -1 -3 -1 0 0 2 4 -3 -1 0 3 -3 -3 1 2 0 -5 -4 -3 -1 2 -2 -0 -2
6 1 1 -5 -20 -32 20 -4 -3 -9 -2 -0 2 5 4 3 -13 6 3 2 3 1 1 -3 2 2 -4 -2 -3 -1 5 2 -8 2 3 1 -5 -8 -4 -1 -0 1 -3 0
3 0 4 3 -15 -18 17 -1 -1 -1 -14 -0 3 -2 1 -3 -6 -4 -1 3 -3 1 -3 -1 3 -2 0 -2 -4 -3 -3 2 -3 -2 1 -1 -4 -7 -6 -2 -1 -2 1 -2
5 -4 6 -0 -1 -24 8 -3 0 -1 -3 -4 -1 -3 -1 -3 4 -1 -1 -2 -1 -2 1 5 -4 -1 3 0 -5 1 4 -5 -4 -2 0 -2 -5 -3 -4 -6 2 -3 1 -1
-13 6 -11 10 -4 9 -3 -0 -8 -5 1 -1 0 -0 -6 -2 -1 -2 -1 2 1 -0 -1 1 -7 -5 6 3 -7 4 0 -8 -3 -2 -1 -1 -2 -4 -3 -3 1 0 -0 -2
6 14 -9 -6 32 10 5 3 3 1 3 1 -1 3 -0 -6 -4 -2 -2 0 -2 2 -2 -1 -4 -4 -4 1 -1 4 -2 -7 -0 -0 1 -1 -2 1 -1 -1 -1 1 2 -0
28 8 2 -8 22 -8 4 4 5 6 3 1 1 -2 -0 -3 6 -5 -1 -3 -1 -4 -2 -3 -7 -5 1 -2 -2 3 -3 -3 -0 -2 1 2 0 -0 3 -0 0 -0 2 -1
6 10 -5 -30 8 2 2 -4 -1 4 2 0 4 8 8 3 -5 -2 -5 -4 -4 -6 -4 -2 -1 -5 1 -1 2 -0 -5 -3 -2 -2 2 -0 1 1 2 1 5 -2 1 1
Height
5814 5813 5811 5809 5807 5805 5803 5802 5800 5798 5797 5796 5793 5791 5789 5787 5783 5780 5777 5774 5770 5766 5762 5757 5752 5748 5742 5735 5729 5723 5717 5711 5706 5700 5694 5688 5681 5674 5668 5662 5656 5650 5645 5641
5813 5810 5808 5806 5804 5801 5800 5798 5796 5795 5792 5791 5788 5787 5784 5782 5778 5774 5771 5767 5763 5760 5756 5751 5745 5740 5734 5727 5721 5714 5708 5701 5696 5691 5685 5679 5673 5665 5656 5649 5644 5638 5633 5628
5809 5807 5805 5802 5799 5797 5795 5793 5791 5789 5787 5785 5783 5781 5778 5775 5771 5767 5765 5760 5756 5753 5750 5743 5736 5730 5724 5718 5711 5705 5699 5692 5688 5683 5677 5670 5663 5657 5649 5640 5634 5627 5620 5614
5806 5802 5799 5796 5793 5791 5788 5786 5784 5781 5779 5778 5777 5774 5771 5768 5764 5761 5758 5754 5750 5747 5741 5735 5729 5721 5716 5711 5703 5695 5689 5683 5677 5672 5666 5660 5653 5648 5639 5632 5623 5614 5606 5600
5802 5797 5793 5790 5787 5784 5782 5778 5776 5774 5773 5771 5770 5767 5766 5760 5758 5755 5751 5746 5742 5738 5732 5726 5719 5711 5706 5700 5693 5686 5680 5673 5667 5661 5655 5649 5642 5636 5630 5621 5613 5602 5591 5583
5798 5793 5788 5785 5781 5777 5774 5772 5769 5767 5766 5764 5761 5759 5758 5754 5751 5747 5742 5737 5734 5728 5722 5715 5707 5699 5694 5688 5681 5675 5669 5662 5656 5650 5643 5637 5630 5624 5618 5610 5600 5589 5578 5568
5795 5789 5784 5780 5777 5773 5768 5764 5761 5760 5757 5755 5753 5751 5750 5746 5742 5737 5733 5727 5722 5717 5711 5705 5697 5690 5683 5676 5670 5664 5657 5651 5644 5638 5631 5624 5618 5611 5603 5595 5585 5573 5564 5554
5789 5785 5778 5774 5770 5766 5762 5759 5756 5751 5749 5747 5744 5742 5739 5738 5733 5727 5722 5717 5711 5706 5700 5693 5686 5680 5672 5665 5658 5652 5646 5639 5633 5627 5619 5612 5605 5598 5588 5578 5568 5557 5548 5541
5778 5780 5773 5768 5763 5760 5756 5753 5750 5745 5742 5739 5736 5733 5731 5728 5722 5717 5710 5706 5699 5693 5687 5679 5672 5666 5659 5653 5646 5641 5635 5628 5621 5615 5608 5599 5593 5584 5574 5564 5553 5543 5535 5529
5773 5770 5768 5763 5757 5753 5750 5747 5743 5738 5734 5730 5727 5722 5723 5719 5712 5706 5699 5694 5688 5681 5674 5666 5659 5653 5646 5639 5634 5628 5622 5616 5609 5602 5595 5587 5580 5570 5560 5550 5540 5530 5522 5517
5765 5764 5763 5756 5750 5747 5745 5741 5737 5733 5728 5723 5719 5713 5714 5707 5701 5693 5688 5683 5677 5669 5662 5653 5647 5640 5634 5627 5621 5615 5610 5603 5595 5588 5582 5574 5566 5557 5546 5537 5527 5517 5510 5505
5759 5754 5753 5752 5745 5740 5737 5735 5730 5725 5721 5715 5710 5707 5703 5697 5691 5683 5677 5671 5665 5655 5648 5640 5634 5627 5621 5615 5608 5602 5596 5589 5582 5575 5568 5561 5552 5544 5534 5523 5513 5504 5499 5494
5749 5747 5741 5742 5741 5733 5728 5727 5722 5716 5711 5709 5696 5699 5689 5685 5675 5668 5664 5657 5649 5642 5634 5628 5622 5615 5608 5601 5595 5589 5582 5575 5568 5561 5554 5546 5539 5530 5520 5510 5500 5492 5488 5483
5739 5737 5735 5730 5727 5721 5716 5716 5712 5705 5700 5695 5688 5683 5680 5669 5661 5656 5650 5643 5636 5628 5620 5615 5608 5601 5595 5587 5581 5575 5568 5560 5553 5545 5539 5532 5524 5515 5505 5497 5488 5481 5477 5474
5729 5726 5725 5722 5721 5712 5705 5704 5699 5693 5689 5678 5680 5666 5667 5654 5649 5643 5637 5627 5621 5613 5606 5599 5593 5587 5580 5572 5566 5559 5551 5543 5537 5529 5522 5516 5509 5500 5491 5483 5475 5469 5466 5463
5719 5716 5712 5707 5708 5702 5694 5696 5688 5684 5677 5668 5662 5659 5648 5643 5635 5628 5620 5612 5603 5596 5589 5583 5576 5570 5563 5556 5550 5543 5535 5527 5520 5513 5505 5498 5492 5485 5476 5469 5462 5456 5453 5451
5708 5705 5700 5695 5691 5684 5682 5679 5674 5669 5659 5651 5644 5639 5632 5624 5616 5610 5602 5593 5587 5580 5573 5566 5560 5554 5547 5540 5532 5526 5519 5510 5502 5494 5486 5479 5474 5469 5461 5455 5447 5442 5440 5438
5697 5693 5686 5682 5677 5670 5666 5662 5656 5651 5641 5631 5626 5620 5613 5607 5599 5592 5583 5576 5570 5564 5557 5549 5542 5536 5528 5520 5513 5506 5499 5491 5482 5474 5466 5459 5454 5451 5444 5439 5432 5426 5424 5422
5686 5679 5673 5667 5662 5657 5653 5646 5641 5631 5630 5616 5609 5604 5596 5587 5582 5578 5565 5559 5553 5546 5539 5532 5524 5516 5509 5500 5493 5486 5478 5469 5460 5454 5446 5438 5432 5430 5425 5420 5415 5410 5407 5406
5670 5665 5659 5654 5645 5640 5636 5630 5619 5611 5608 5602 5592 5587 5578 5568 5561 5559 5551 5543 5536 5527 5519 5511 5503 5495 5487 5479 5470 5463 5456 5447 5436 5432 5424 5415 5409 5407 5404 5399 5395 5392 5389 5389
5654 5647 5640 5633 5621 5620 5618 5606 5598 5591 5586 5579 5576 5566 5557 5550 5543 5539 5532 5526 5516 5508 5500 5491 5481 5473 5465 5457 5444 5438 5431 5421 5412 5406 5400 5391 5385 5382 5378 5376 5373 5372 5370 5370
5638 5630 5624 5614 5606 5602 5596 5586 5580 5573 5568 5562 5554 5546 5540 5533 5528 5520 5512 5505 5497 5489 5481 5470 5459 5453 5445 5434 5417 5410 5403 5392 5384 5378 5372 5363 5357 5353 5351 5349 5349 5349 5349 5351
5620 5612 5608 5600 5597 5585 5575 5566 5561 5558 5553 5544 5537 5529 5522 5516 5510 5501 5493 5485 5478 5468 5460 5448 5437 5430 5425 5411 5397 5383 5372 5362 5355 5347 5340 5332 5327 5325 5323 5323 5325 5326 5328 5331
5601 5595 5589 5581 5579 5569 5557 5552 5547 5540 5532 5525 5518 5510 5501 5493 5487 5479 5470 5464 5456 5450 5439 5427 5417 5407 5399 5386 5374 5356 5344 5335 5328 5322 5316 5308 5303 5300 5299 5300 5302 5305 5309 5312
5583 5578 5571 5563 5558 5548 5545 5539 5531 5523 5516 5510 5501 5492 5482 5473 5465 5454 5449 5443 5435 5426 5417 5403 5392 5381 5371 5359 5349 5334 5322 5313 5309 5302 5296 5289 5284 5280 5279 5281 5284 5287 5292 5297
5568 5560 5547 5543 5543 5535 5531 5525 5517 5509 5499 5492 5485 5477 5466 5453 5444 5434 5426 5421 5410 5400 5389 5378 5368 5355 5347 5337 5327 5316 5305 5296 5291 5286 5278 5272 5268 5265 5264 5266 5271 5273 5278 5284